Time,TemperatureF,DewpointF,PressureIn,WindDirection,WindDirectionDegrees,WindSpeedMPH,WindSpeedGustMPH,Humidity,HourlyPrecipIn,Conditions,Clouds,dailyrainin,SoftwareType,DateUTC
2013-04-13 00:08:00,65.0,-99.9,-100.00,West,266,11.0,12.0,-999,-99.99,,,-99.99,,2013-04-13 07:08:00,
2013-04-13 00:15:00,64.0,-99.9,-100.00,West,261,8.0,10.0,-999,-99.99,,,-99.99,,2013-04-13 07:15:00,
2013-04-13 00:50:00,62.0,-99.9,-100.00,West,276,8.0,11.0,-999,-99.99,,,-99.99,,2013-04-13 07:50:00,
2013-04-13 01:08:00,64.0,-99.9,-100.00,West,261,8.0,10.0,-999,-99.99,,,-99.99,,2013-04-13 08:08:00,
2013-04-13 01:27:00,65.0,-99.9,-100.00,WNW,291,6.0,8.0,-999,-99.99,,,-99.99,,2013-04-13 08:27:00,
2013-04-13 01:47:00,62.0,-99.9,-100.00,West,276,8.0,11.0,-999,-99.99,,,-99.99,,2013-04-13 08:47:00,
2013-04-13 02:07:00,64.0,-99.9,-100.00,West,276,10.0,13.0,-999,-99.99,,,-99.99,,2013-04-13 09:07:00,
2013-04-13 02:15:00,64.0,-99.9,-100.00,West,276,10.0,13.0,-999,-99.99,,,-99.99,,2013-04-13 09:15:00,
2013-04-13 02:26:00,64.0,-99.9,-100.00,West,279,6.0,14.0,-999,-99.99,,,-99.99,,2013-04-13 09:26:00,
2013-04-13 03:35:00,58.0,-99.9,-100.00,West,276,10.0,12.0,-999,-99.99,,,-99.99,,2013-04-13 10:35:00,
2013-04-13 04:25:00,58.0,-99.9,-100.00,West,276,10.0,12.0,-999,-99.99,,,-99.99,,2013-04-13 11:25:00,
2013-04-13 05:55:00,55.0,-99.9,-100.00,West,276,12.0,17.0,-999,-99.99,,,-99.99,,2013-04-13 12:55:00,
2013-04-13 06:20:00,56.0,-99.9,-100.00,WNW,288,9.0,16.0,-999,-99.99,,,-99.99,,2013-04-13 13:20:00,
2013-04-13 06:31:00,57.0,-99.9,-100.00,West,274,14.0,16.0,-999,-99.99,,,-99.99,,2013-04-13 13:31:00,
2013-04-13 06:38:00,55.0,-99.9,-100.00,West,276,12.0,17.0,-999,-99.99,,,-99.99,,2013-04-13 13:38:00,
2013-04-13 06:49:00,55.0,-99.9,-100.00,West,276,12.0,17.0,-999,-99.99,,,-99.99,,2013-04-13 13:49:00,
2013-04-13 07:05:00,56.0,-99.9,-100.00,WNW,288,9.0,16.0,-999,-99.99,,,-99.99,,2013-04-13 14:05:00,
2013-04-13 07:15:00,56.0,-99.9,-100.00,WNW,288,9.0,16.0,-999,-99.99,,,-99.99,,2013-04-13 14:15:00,
2013-04-13 10:09:00,71.0,-99.9,-100.00,West,272,18.0,19.0,-999,-99.99,,,-99.99,,2013-04-13 17:09:00,
2013-04-13 10:23:00,71.0,-99.9,-100.00,West,272,18.0,19.0,-999,-99.99,,,-99.99,,2013-04-13 17:23:00,
2013-04-13 11:30:00,76.0,-99.9,-100.00,West,272,16.0,21.0,-999,-99.99,,,-99.99,,2013-04-13 18:30:00,
2013-04-13 12:23:00,76.0,-99.9,-100.00,West,272,16.0,21.0,-999,-99.99,,,-99.99,,2013-04-13 19:23:00,
2013-04-13 13:02:00,75.0,-99.9,-100.00,West,274,16.0,19.0,-999,-99.99,,,-99.99,,2013-04-13 20:02:00,
2013-04-13 13:13:00,75.0,-99.9,-100.00,West,274,16.0,19.0,-999,-99.99,,,-99.99,,2013-04-13 20:13:00,
2013-04-13 16:02:00,80.0,-99.9,-100.00,West,275,12.0,17.0,-999,-99.99,,,-99.99,,2013-04-13 23:02:00,
2013-04-13 16:12:00,80.0,-99.9,-100.00,West,275,12.0,17.0,-999,-99.99,,,-99.99,,2013-04-13 23:12:00,
2013-04-13 16:20:00,80.0,-99.9,-100.00,WNW,283,8.0,14.0,-999,-99.99,,,-99.99,,2013-04-13 23:20:00,
2013-04-13 17:03:00,80.0,-99.9,-100.00,WNW,283,8.0,14.0,-999,-99.99,,,-99.99,,2013-04-14 00:03:00,
2013-04-13 17:12:00,80.0,-99.9,-100.00,WNW,283,8.0,14.0,-999,-99.99,,,-99.99,,2013-04-14 00:12:00,
2013-04-13 17:30:00,77.0,-99.9,-100.00,WSW,257,9.0,21.0,-999,-99.99,,,-99.99,,2013-04-14 00:30:00,
2013-04-13 18:02:00,77.0,-99.9,-100.00,WSW,257,9.0,21.0,-999,-99.99,,,-99.99,,2013-04-14 01:02:00,
2013-04-13 18:13:00,77.0,-99.9,-100.00,WSW,257,9.0,21.0,-999,-99.99,,,-99.99,,2013-04-14 01:13:00,
2013-04-13 18:23:00,77.0,-99.9,-100.00,WSW,257,9.0,21.0,-999,-99.99,,,-99.99,,2013-04-14 01:23:00,
2013-04-13 19:20:00,68.0,-99.9,-100.00,West,279,14.0,21.0,-999,-99.99,,,-99.99,,2013-04-14 02:20:00,
2013-04-13 20:03:00,68.0,-99.9,-100.00,West,279,14.0,21.0,-999,-99.99,,,-99.99,,2013-04-14 03:03:00,
2013-04-13 20:13:00,68.0,-99.9,-100.00,West,279,14.0,21.0,-999,-99.99,,,-99.99,,2013-04-14 03:13:00,
2013-04-13 21:33:00,61.0,-99.9,-100.00,West,280,10.0,17.0,-999,-99.99,,,-99.99,,2013-04-14 04:33:00,
2013-04-13 21:43:00,61.0,-99.9,-100.00,West,280,10.0,17.0,-999,-99.99,,,-99.99,,2013-04-14 04:43:00,
2013-04-13 22:10:00,57.0,-99.9,-100.00,West,278,15.0,23.0,-999,-99.99,,,-99.99,,2013-04-14 05:10:00,
2013-04-13 22:23:00,58.0,-99.9,-100.00,WNW,282,14.0,15.0,-999,-99.99,,,-99.99,,2013-04-14 05:23:00,
2013-04-13 22:32:00,58.0,-99.9,-100.00,WNW,284,12.0,16.0,-999,-99.99,,,-99.99,,2013-04-14 05:32:00,
2013-04-13 22:43:00,58.0,-99.9,-100.00,WNW,284,12.0,16.0,-999,-99.99,,,-99.99,,2013-04-14 05:43:00,
2013-04-13 22:53:00,57.0,-99.9,-100.00,West,278,15.0,23.0,-999,-99.99,,,-99.99,,2013-04-14 05:53:00,
2013-04-13 23:02:00,57.0,-99.9,-100.00,West,278,15.0,23.0,-999,-99.99,,,-99.99,,2013-04-14 06:02:00,